Location: Artiguedieu
(43.5000°N, 0.5454°E)
Time: 23:49:56
(UTC+00:00)

Vanguard 1 - All Passes

Search period start: 28 July 2021 00:00
Search period end: 07 August 2021 00:00
Orbit: 651 x 3831 km, 34.2° (Epoch: 28 July)

Date Brightness Start Highest point End Pass type
(mag) Time Alt. Az. Time Alt. Az. Time Alt. Az.
28 Jul - 11:48:13 10° SW 11:53:33 36° SSE 12:02:11 10° E daylight
28 Jul - 14:06:29 10° WSW 14:13:58 49° S 14:27:34 10° ESE daylight
28 Jul - 16:26:14 10° W 16:36:01 37° SSW 16:52:04 10° SE daylight
28 Jul - 18:50:04 10° WSW 18:59:03 18° SW 19:10:23 10° S daylight
29 Jul - 09:52:40 10° S 09:55:16 14° SE 09:58:20 10° ESE daylight
29 Jul - 12:08:40 10° SW 12:14:14 40° SSE 12:23:30 10° E daylight
29 Jul - 14:27:15 10° WSW 14:34:55 46° S 14:48:38 10° ESE daylight
29 Jul - 16:47:29 10° W 16:57:05 31° SSW 17:12:03 10° SSE daylight
29 Jul - 19:14:57 10° WSW 19:20:04 12° SW 19:25:50 10° SSW daylight
30 Jul - 10:12:06 10° SSW 10:15:41 19° SSE 10:20:18 10° ESE daylight
30 Jul - 12:29:14 10° WSW 12:34:58 43° S 12:44:46 10° ESE daylight
30 Jul - 14:48:06 10° WSW 14:55:53 42° S 15:09:31 10° SE daylight
30 Jul - 17:09:03 10° WSW 17:18:09 25° SSW 17:31:29 10° SSE daylight
31 Jul - 10:32:06 10° SSW 10:36:11 25° SSE 10:41:47 10° ESE daylight
31 Jul - 12:49:53 10° WSW 12:55:48 44° S 13:05:57 10° ESE daylight
31 Jul - 15:09:03 10° WSW 15:16:53 36° SSW 15:30:07 10° SE daylight
31 Jul - 17:31:11 10° WSW 17:39:13 19° SSW 17:50:06 10° S daylight
01 Aug - 10:52:23 10° SW 10:56:46 30° SSE 11:03:05 10° ESE daylight
01 Aug - 13:10:36 10° WSW 13:16:39 42° S 13:27:01 10° ESE daylight
01 Aug - 15:30:10 10° WSW 15:37:53 31° SSW 15:50:24 10° SE daylight
01 Aug - 17:54:37 10° WSW 18:00:18 13° SSW 18:07:11 10° S daylight
02 Aug - 08:56:57 10° SSE 08:58:29 11° SSE 09:00:08 10° SE daylight
02 Aug - 11:12:51 10° SW 11:17:26 34° SSE 11:24:17 10° ESE daylight
02 Aug - 13:31:24 10° WSW 13:37:31 39° S 13:47:58 10° SE daylight
02 Aug - 15:51:31 10° WSW 15:58:55 25° SSW 16:10:12 10° SSE daylight
03 Aug - 09:16:08 10° SSW 09:19:00 16° SSE 09:22:16 10° ESE daylight
03 Aug - 11:33:26 10° WSW 11:38:10 37° S 11:45:24 10° ESE daylight
03 Aug - 13:52:16 10° WSW 13:58:27 34° S 14:08:42 10° SE daylight
03 Aug - 16:13:19 10° WSW 16:19:59 19° SSW 16:29:20 10° SSE daylight
04 Aug - 09:36:07 10° SSW 09:39:34 21° SSE 09:43:42 10° ESE daylight
04 Aug - 11:54:07 10° WSW 11:58:56 37° S 12:06:27 10° ESE daylight
04 Aug - 14:13:16 10° WSW 14:19:23 29° SSW 14:29:09 10° SE daylight
04 Aug - 16:36:04 10° SW 16:41:03 14° SSW 16:47:16 10° S daylight
05 Aug - 09:56:26 10° SW 10:00:13 26° SSE 10:04:54 10° ESE daylight
05 Aug - 12:14:51 10° WSW 12:19:45 35° S 12:27:22 10° ESE daylight
05 Aug - 14:34:29 10° WSW 14:40:22 24° SSW 14:49:12 10° SSE daylight
06 Aug - 08:00:20 10° S 08:01:47 11° SSE 08:03:13 10° SE daylight
06 Aug - 10:16:56 10° SW 10:20:53 29° S 10:25:59 10° ESE daylight
06 Aug - 12:35:41 10° WSW 12:40:35 31° S 12:48:08 10° SE daylight
06 Aug - 14:56:05 10° WSW 15:01:21 18° SSW 15:08:42 10° SSE daylight
